Location: Overspoor
(51.4747°N, 5.6641°E)
Time: 07:05:48
(UTC+02:00)

NANOSAT C BR1 - Pass Details

Date: 05 July 2022
Orbit: 584 x 599 km, 98.0° (Epoch: 17 August)

Event Time Altitude Azimuth Distance (km) Brightness Sun altitude
Rises 03:44:03 0° 16° (NNE) 2,855 ? -11.0°
Reaches altitude 10° 03:46:15 10° 19° (NNE) 1,950 ? -10.9°
Maximum altitude 03:50:28 66° 102° (ESE) 661 ? -10.5°
Enters shadow 03:54:27 11° 185° (S) 1,859 ? -10.2°
